Tracking 29777 objects as of 4-Oct-2024
HD Live streaming from Space Station
objects crossing your sky now

CZ-3C DEB

Track CZ-3C DEB now!


NORAD ID: 39352
Int'l Code: 2010-057S
Perigee: 664.2 km
Apogee: 36,828.8 km
Inclination: 21.3 °
Period: 660.3 minutes
Semi major axis: 25117 km
RCS: 0.6339 m2 (medium)
Launch date: October 31, 2010
Source: People's Republic of China (PRC)
Launch site: Xichang Space Center, China (XSC)

Note: This is SATELLITE DEBRIS
Your satellite tracking list
Your tracking list is empty




NASA's NSSDC Master Catalog

Two Line Element Set (TLE):
1 39352U 10057S   24276.59714802 -.00000248  00000-0  12600-3 0  9999
2 39352  21.3007   7.0117 7199096  17.8244   1.5424  2.18091772 87435
Source of the keplerian elements: AFSPC